Weather History for KGLD - March, 2014

Change the Weather History Date:

Tuesday, March 11, 2014

  Actual Average Record
Temperature  
Mean Temperature 40 °F 39 °F  
Max Temperature 54 °F 53 °F 82 °F (1972)
Min Temperature 26 °F 25 °F -20 °F (1948)
Degree Days  
Heating Degree Days 25 26  
Month to date heating degree days 311 300  
Since 1 July heating degree days 4855 4717  
Cooling Degree Days 0 0  
Month to date cooling degree days 0 0  
Year to date cooling degree days 0 0  
Moisture  
Dew Point 31 °F    
Average Humidity 62    
Maximum Humidity 100    
Minimum Humidity 24    
Precipitation  
Precipitation 0.02 in 0.03 in 1.17 in (1977)
Month to date precipitation 0.08 0.31  
Year to date precipitation 1.02 1.18  
Snow  
Snow T in 0.20 in - ()
Month to date snowfall 0.6 2.1  
Since 1 July snowfall 25.8 26.1  
Snow Depth 0.00 in    
Sea Level Pressure  
Sea Level Pressure 29.91 in    
Wind  
Wind Speed 24 mph (NNW)    
Max Wind Speed 39 mph    
Max Gust Speed 46 mph    
Visibility 8 miles    
Events Snow    
T = Trace of Precipitation, MM = Missing Value Source: NWS Daily Summary

Daily Weather History Graph

Daily Weather History Graph

Search for Another Location

Airport or City:

Trip Planner

Search our weather history database for the weather conditions in past years. The results will help you decide how hot, cold, wet, or windy it might be!

Date:

Astronomy

Mar. 11, 2014 Rise Set
Actual Time 7:04 AM MDT 6:49 PM MDT
Civil Twilight 6:37 AM MDT 7:16 PM MDT
Nautical Twilight 6:06 AM MDT 7:47 PM MDT
Astronomical Twilight 5:35 AM MDT 8:18 PM MDT
Moon 2:29 PM MDT (3/11) 3:58 AM MDT (3/11)
Length of Visible Light 12h 38m
Length of Day
11h 45m
Waxing Gibbous, 78% of the Moon is Illuminated
Mar 11
Waxing Gibbous
Mar 16
Full
Mar 23
Last Quarter
Mar 30
New
Apr 7
First Quarter

Hourly Weather History & Observations

Time (MDT) Temp. Windchill Dew Point Humidity Pressure Visibility Wind Dir Wind Speed Gust Speed Precip Events Conditions
12:53 AM 48.9 °F - 18.0 °F 29% 29.45 in 10.0 mi South 13.8 mph - N/A   Clear
1:53 AM 50.0 °F - 16.0 °F 26% 29.43 in 10.0 mi WSW 17.3 mph - N/A   Clear
2:53 AM 52.0 °F - 15.1 °F 23% 29.41 in 10.0 mi West 25.3 mph 28.8 mph N/A   Clear
3:53 AM 50.0 °F - 21.9 °F 33% 29.42 in 10.0 mi NW 20.7 mph - N/A   Clear
4:53 AM 48.0 °F - 26.1 °F 42% 29.46 in 10.0 mi NNW 19.6 mph - N/A   Clear
5:53 AM 46.0 °F 38.8 °F 32.0 °F 58% 29.51 in 10.0 mi NNW 18.4 mph - N/A   Clear
6:53 AM 45.0 °F 37.9 °F 35.1 °F 68% 29.59 in 10.0 mi NNW 16.1 mph - N/A   Clear
7:53 AM 44.1 °F 34.8 °F 36.0 °F 73% 29.62 in 10.0 mi NNW 25.3 mph 31.1 mph N/A   Clear
8:39 AM 44.1 °F 34.6 °F 37.9 °F 79% 29.69 in 10.0 mi North 26.5 mph 38.0 mph N/A   Mostly Cloudy
8:53 AM 43.0 °F 33.1 °F 37.9 °F 82% 29.67 in 10.0 mi North 26.5 mph 35.7 mph N/A   Overcast
9:53 AM 41.0 °F 29.0 °F 37.0 °F 86% 29.75 in 10.0 mi North 35.7 mph 46.0 mph N/A   Overcast
10:08 AM 39.0 °F 26.8 °F 35.1 °F 86% 29.77 in 10.0 mi North 32.2 mph 46.0 mph N/A   Overcast
10:53 AM 37.0 °F 23.7 °F 33.1 °F 86% 29.81 in 9.0 mi North 34.5 mph 43.7 mph N/A   Overcast
11:53 AM 36.0 °F 22.4 °F 32.0 °F 86% 29.86 in 10.0 mi North 33.4 mph 42.6 mph N/A   Overcast
12:53 PM 37.0 °F 24.9 °F 32.0 °F 82% 29.89 in 10.0 mi North 27.6 mph 38.0 mph N/A   Overcast
1:05 PM 37.0 °F 25.1 °F 32.0 °F 82% 29.90 in 10.0 mi North 26.5 mph 39.1 mph N/A   Overcast
1:53 PM 36.0 °F 23.5 °F 33.1 °F 89% 29.94 in 9.0 mi North 27.6 mph 38.0 mph 0.00 in Snow Light Snow
2:10 PM 34.0 °F 21.3 °F 33.1 °F 96% 29.95 in 1.8 mi North 25.3 mph 35.7 mph 0.00 in Snow Light Snow
2:25 PM 35.1 °F 22.2 °F 34.0 °F 96% 29.96 in 3.0 mi North 27.6 mph 35.7 mph 0.00 in Snow Light Snow
2:43 PM 34.0 °F 20.5 °F 33.1 °F 96% 29.97 in 2.0 mi North 28.8 mph 36.8 mph 0.00 in Snow Light Snow
2:53 PM 35.1 °F 21.4 °F 33.1 °F 92% 29.98 in 3.0 mi North 32.2 mph 39.1 mph 0.00 in Snow Light Snow
3:07 PM 34.0 °F 20.8 °F 33.1 °F 96% 29.99 in 1.8 mi North 27.6 mph 39.1 mph 0.00 in Snow Light Snow
3:25 PM 35.1 °F 21.4 °F 34.0 °F 96% 30.01 in 3.0 mi North 32.2 mph 40.3 mph 0.00 in Snow Light Snow
3:53 PM 34.0 °F 19.5 °F 33.1 °F 96% 30.03 in 2.5 mi North 34.5 mph 44.9 mph 0.00 in Snow Light Snow
4:00 PM 34.0 °F 19.3 °F 32.0 °F 92% 30.02 in 4.0 mi North 35.7 mph 46.0 mph 0.00 in Snow Light Snow
4:20 PM 34.0 °F 20.1 °F 32.0 °F 92% 30.04 in 2.5 mi North 31.1 mph 46.0 mph 0.00 in Snow Light Snow
4:27 PM 34.0 °F 20.1 °F 32.0 °F 92% 30.05 in 4.0 mi North 31.1 mph 42.6 mph 0.00 in Snow Light Snow
4:53 PM 34.0 °F 20.5 °F 33.1 °F 96% 30.07 in 7.0 mi North 28.8 mph 38.0 mph 0.00 in   Overcast
5:14 PM 33.1 °F 19.1 °F 32.0 °F 96% 30.07 in 1.8 mi North 29.9 mph 40.3 mph 0.01 in Snow Light Snow
5:23 PM 34.0 °F 20.3 °F 32.0 °F 92% 30.08 in 3.0 mi North 29.9 mph 36.8 mph 0.01 in Snow Light Snow
5:53 PM 34.0 °F 20.8 °F 32.0 °F 92% 30.13 in 10.0 mi North 27.6 mph 39.1 mph 0.01 in   Overcast
6:06 PM 35.1 °F 23.0 °F 33.1 °F 92% 30.11 in 10.0 mi North 24.2 mph 31.1 mph N/A   Overcast
6:38 PM 35.1 °F 24.1 °F 33.1 °F 92% 30.14 in 10.0 mi North 19.6 mph - N/A   Mostly Cloudy
6:53 PM 34.0 °F 22.7 °F 32.0 °F 92% 30.19 in 10.0 mi North 19.6 mph 26.5 mph N/A   Mostly Cloudy
7:53 PM 34.0 °F 22.4 °F 30.0 °F 85% 30.23 in 10.0 mi North 20.7 mph - N/A   Scattered Clouds
8:53 PM 32.0 °F 20.8 °F 28.9 °F 88% 30.26 in 10.0 mi NNW 17.3 mph - N/A   Clear
9:53 PM 32.0 °F 20.5 °F 27.0 °F 82% 30.29 in 10.0 mi NNW 18.4 mph - N/A   Clear
10:53 PM 30.0 °F 20.0 °F 27.0 °F 88% 30.32 in 10.0 mi NNW 12.7 mph - N/A   Clear
11:53 PM 28.0 °F 19.3 °F 25.0 °F 88% 30.34 in 10.0 mi NNW 9.2 mph - N/A   Clear